User: anonymous   Login
Location: Fort Wayne
(41.1310°N, 85.1290°W)
Time: 16:19:10
(UTC-04:00)
Language:

CZ-2C R/B - Orbit

View from above orbital plane
View from above orbital plane
View from above satellite
View from above satellite

Ground track
Ground track

The orbit data is extracted from the following two-line orbital elements,

1 36089U 09061B   17114.94745983 -.00000010 +00000-0 +87315-5 0  9996
2 36089 098.0522 119.1105 0081401 208.8956 206.1865 14.49655554393904
Epoch (UTC): 24 April 2017 22:44:20
Eccentricity: 0.0081401
inclination: 98.0522°
perigee height: 669 km
apogee height: 784 km
right ascension of ascending node: 119.1105°
argument of perigee: 208.8956°
revolutions per day: 14.49655554
mean anomaly at epoch: 206.1865°
orbit number at epoch: 39390

The dashed part of the orbit path shows where the satellite is in the earth's shadow,  

DLR